| time (UTC) | temp F | wind direction | speed knots | gust knots | rain 1hr in | rain 24hr in | rain mn in | humidity % | barometer mb |
| 20260504081754 | 47 | 41 | 7.0 | 7.8 | 0.00 | 0.00 | 0.00 | 56 | 1015.6 |
| 20260504081250 | 47 | 42 | 9.6 | 13.0 | 0.00 | 0.00 | 0.00 | 56 | 1015.4 |
| 20260504080747 | 48 | 25 | 8.7 | 9.6 | 0.00 | 0.00 | 0.00 | 54 | 1015.4 |
| 20260504080243 | 48 | 43 | 11.3 | 15.6 | 0.00 | 0.00 | 0.00 | 54 | 1015.3 |
| 20260504070211 | 51 | 33 | 6.1 | 7.0 | 0.00 | 0.00 | 0.00 | 45 | 1013.9 |
| 20260504060131 | 53 | 46 | 12.2 | 15.6 | 0.00 | 0.00 | 0.00 | 39 | 1012.3 |
| 20260504050559 | 54 | 55 | 9.6 | 12.2 | 0.00 | 0.00 | 0.00 | 37 | 1011.4 |
| 20260504045553 | 54 | 31 | 20.0 | 26.1 | 0.00 | 0.00 | 0.00 | 37 | 1011.0 |
| 20260504045048 | 55 | 33 | 20.0 | 23.5 | 0.00 | 0.00 | 0.00 | 37 | 1010.9 |
| 20260504044546 | 57 | 20 | 20.0 | 25.2 | 0.00 | 0.00 | 0.00 | 39 | 1010.4 |
| 20260504044043 | 57 | 50 | 18.2 | 26.1 | 0.00 | 0.00 | 0.00 | 38 | 1010.7 |
| 20260504043540 | 58 | 48 | 16.5 | 21.7 | 0.00 | 0.00 | 0.00 | 37 | 1010.3 |
| 20260504043037 | 58 | 33 | 16.5 | 19.1 | 0.00 | 0.00 | 0.00 | 36 | 1010.2 |
| 20260504042534 | 58 | 29 | 10.4 | 13.0 | 0.00 | 0.00 | 0.00 | 37 | 1010.1 |
| 20260504042031 | 58 | 4 | 8.7 | 12.2 | 0.00 | 0.00 | 0.00 | 36 | 1010.1 |
| 20260504041527 | 58 | 73 | 9.6 | 11.3 | 0.00 | 0.00 | 0.00 | 36 | 1009.9 |
| 20260504041023 | 58 | 34 | 9.6 | 11.3 | 0.00 | 0.00 | 0.00 | 36 | 1009.7 |
| 20260504040521 | 58 | 19 | 7.8 | 9.6 | 0.00 | 0.00 | 0.00 | 36 | 1010.0 |
| 20260504040018 | 59 | 24 | 8.7 | 11.3 | 0.00 | 0.00 | 0.00 | 35 | 1009.8 |
| 20260504035515 | 59 | 13 | 9.6 | 11.3 | 0.00 | 0.00 | 0.00 | 35 | 1009.7 |
| 20260504035011 | 59 | 70 | 9.6 | 12.2 | 0.00 | 0.00 | 0.00 | 35 | 1009.4 |
| 20260504034509 | 59 | 51 | 7.8 | 9.6 | 0.00 | 0.00 | 0.00 | 35 | 1009.3 |
| 20260504034006 | 59 | 43 | 10.4 | 14.8 | 0.00 | 0.00 | 0.00 | 35 | 1009.2 |
| 20260504033503 | 59 | 31 | 9.6 | 11.3 | 0.00 | 0.00 | 0.00 | 35 | 1009.2 |
| 20260504033000 | 60 | 21 | 13.0 | 14.8 | 0.00 | 0.00 | 0.00 | 35 | 1009.1 |
| 20260504032457 | 60 | 50 | 11.3 | 14.8 | 0.00 | 0.00 | 0.00 | 35 | 1008.8 |
| 20260504031954 | 60 | 42 | 13.0 | 15.6 | 0.00 | 0.00 | 0.00 | 35 | 1008.8 |
| 20260504031450 | 60 | 46 | 11.3 | 13.9 | 0.00 | 0.00 | 0.00 | 35 | 1008.7 |
| 20260504030947 | 60 | 19 | 13.0 | 13.9 | 0.00 | 0.00 | 0.00 | 35 | 1008.9 |
| 20260504030445 | 60 | 18 | 11.3 | 13.9 | 0.00 | 0.00 | 0.00 | 35 | 1008.5 |
| 20260504025940 | 61 | 19 | 10.4 | 12.2 | 0.00 | 0.00 | 0.00 | 35 | 1008.2 |
| 20260504025437 | 61 | 17 | 9.6 | 13.0 | 0.00 | 0.00 | 0.00 | 34 | 1008.5 |
| 20260504024934 | 62 | 31 | 10.4 | 14.8 | 0.00 | 0.00 | 0.00 | 34 | 1008.5 |
| 20260504024431 | 62 | 43 | 10.4 | 13.0 | 0.00 | 0.00 | 0.00 | 33 | 1008.2 |
| 20260504023928 | 63 | 28 | 11.3 | 14.8 | 0.00 | 0.00 | 0.00 | 31 | 1008.3 |
| 20260504023425 | 64 | 64 | 6.1 | 7.0 | 0.00 | 0.00 | 0.00 | 30 | 1008.2 |
| 20260504022920 | 64 | 28 | 7.8 | 8.7 | 0.00 | 0.00 | 0.00 | 28 | 1008.2 |
| 20260504022417 | 64 | 61 | 9.6 | 11.3 | 0.00 | 0.00 | 0.00 | 27 | 1008.5 |
| 20260504021914 | 65 | 65 | 2.6 | 2.6 | 0.00 | 0.00 | 0.00 | 25 | 1008.3 |
| 20260504021411 | 65 | 41 | 2.6 | 2.6 | 0.00 | 0.00 | 0.00 | 24 | 1008.3 |
| 20260504020908 | 66 | 48 | 1.7 | 2.6 | 0.00 | 0.00 | 0.00 | 23 | 1008.5 |
| 20260504020405 | 67 | 339 | 6.1 | 7.0 | 0.00 | 0.00 | 0.00 | 23 | 1008.2 |
| 20260504015901 | 67 | 16 | 5.2 | 7.0 | 0.00 | 0.00 | 0.00 | 23 | 1008.5 |
| 20260504015357 | 68 | 0 | 5.2 | 7.0 | 0.00 | 0.00 | 0.00 | 23 | 1008.3 |
| 20260504014853 | 68 | 0 | 4.3 | 6.1 | 0.00 | 0.00 | 0.00 | 23 | 1008.3 |
| 20260504014349 | 69 | 350 | 7.0 | 7.8 | 0.00 | 0.00 | 0.00 | 22 | 1008.6 |
| 20260504013847 | 69 | 338 | 6.1 | 7.0 | 0.00 | 0.00 | 0.00 | 22 | 1008.6 |
| 20260504013345 | 70 | 345 | 7.0 | 7.8 | 0.00 | 0.00 | 0.00 | 22 | 1008.6 |
| 20260504012841 | 70 | 0 | 8.7 | 9.6 | 0.00 | 0.00 | 0.00 | 22 | 1008.6 |
| 20260504012339 | 71 | 0 | 8.7 | 9.6 | 0.00 | 0.00 | 0.00 | 22 | 1008.5 |
| 20260504011836 | 71 | 353 | 8.7 | 9.6 | 0.00 | 0.00 | 0.00 | 21 | 1008.6 |
| 20260504011332 | 71 | 6 | 3.5 | 5.2 | 0.00 | 0.00 | 0.00 | 21 | 1008.3 |
| 20260504010829 | 71 | 8 | 8.7 | 9.6 | 0.00 | 0.00 | 0.00 | 21 | 1008.5 |
| 20260504010324 | 71 | 340 | 7.8 | 8.7 | 0.00 | 0.00 | 0.00 | 22 | 1008.6 |
| 20260504005821 | 72 | 352 | 7.8 | 8.7 | 0.00 | 0.00 | 0.00 | 22 | 1008.3 |
| 20260504005318 | 72 | 338 | 7.0 | 8.7 | 0.00 | 0.00 | 0.00 | 21 | 1008.7 |
| 20260504004816 | 72 | 336 | 8.7 | 9.6 | 0.00 | 0.00 | 0.00 | 21 | 1008.8 |
| 20260504004313 | 72 | 4 | 9.6 | 12.2 | 0.00 | 0.00 | 0.00 | 21 | 1008.8 |
| 20260504003809 | 73 | 353 | 7.8 | 9.6 | 0.00 | 0.00 | 0.00 | 21 | 1008.8 |
| 20260504003307 | 73 | 5 | 9.6 | 9.6 | 0.00 | 0.00 | 0.00 | 21 | 1008.8 |
| 20260504002803 | 73 | 357 | 10.4 | 12.2 | 0.00 | 0.00 | 0.00 | 21 | 1008.8 |
| 20260504002300 | 73 | 261 | 4.3 | 6.1 | 0.00 | 0.00 | 0.00 | 21 | 1008.8 |
| 20260504001758 | 72 | 331 | 4.3 | 6.1 | 0.00 | 0.00 | 0.00 | 22 | 1008.7 |
| 20260504001254 | 73 | 343 | 12.2 | 13.0 | 0.00 | 0.00 | 0.00 | 21 | 1009.1 |
| 20260504000751 | 72 | 331 | 5.2 | 6.1 | 0.00 | 0.00 | 0.00 | 21 | 1008.9 |
| 20260504000248 | 73 | 355 | 6.1 | 9.6 | 0.00 | 0.00 | 0.00 | 21 | 1008.9 |
| 20260503235746 | 73 | 9 | 13.0 | 13.9 | 0.00 | 0.00 | 0.00 | 21 | 1009.0 |
| 20260503235243 | 74 | 324 | 7.0 | 7.8 | 0.00 | 0.00 | 0.00 | 20 | 1009.0 |
| 20260503234741 | 73 | 337 | 6.1 | 7.0 | 0.00 | 0.00 | 0.00 | 20 | 1008.9 |
| 20260503234239 | 73 | 331 | 9.6 | 9.6 | 0.00 | 0.00 | 0.00 | 20 | 1009.0 |
| 20260503233736 | 73 | 323 | 7.0 | 8.7 | 0.00 | 0.00 | 0.00 | 21 | 1009.1 |
| 20260503233231 | 73 | 329 | 7.0 | 7.8 | 0.00 | 0.00 | 0.00 | 20 | 1009.0 |
| 20260503232728 | 74 | 337 | 11.3 | 14.8 | 0.00 | 0.00 | 0.00 | 20 | 1009.1 |
| 20260503232226 | 74 | 271 | 2.6 | 3.5 | 0.00 | 0.00 | 0.00 | 20 | 1009.0 |
| 20260503231724 | 74 | 310 | 7.8 | 9.6 | 0.00 | 0.00 | 0.00 | 20 | 1009.2 |
| 20260503231220 | 75 | 339 | 9.6 | 12.2 | 0.00 | 0.00 | 0.00 | 20 | 1009.2 |
| 20260503230716 | 73 | 359 | 7.8 | 8.7 | 0.00 | 0.00 | 0.00 | 21 | 1009.1 |
| 20260503230214 | 74 | 339 | 9.6 | 11.3 | 0.00 | 0.00 | 0.00 | 20 | 1009.1 |
| 20260503225711 | 74 | 343 | 11.3 | 12.2 | 0.00 | 0.00 | 0.00 | 20 | 1009.1 |
| 20260503225206 | 74 | 305 | 11.3 | 13.9 | 0.00 | 0.00 | 0.00 | 20 | 1009.2 |
| 20260503224704 | 74 | 338 | 11.3 | 13.0 | 0.00 | 0.00 | 0.00 | 20 | 1009.3 |
| 20260503224201 | 74 | 346 | 9.6 | 11.3 | 0.00 | 0.00 | 0.00 | 20 | 1009.3 |
| 20260503223659 | 74 | 317 | 6.1 | 7.0 | 0.00 | 0.00 | 0.00 | 20 | 1009.6 |
| 20260503223156 | 74 | 335 | 9.6 | 13.9 | 0.00 | 0.00 | 0.00 | 20 | 1009.7 |
| 20260503222652 | 74 | 297 | 8.7 | 13.9 | 0.00 | 0.00 | 0.00 | 20 | 1009.8 |
| 20260503222150 | 73 | 231 | 6.1 | 7.8 | 0.00 | 0.00 | 0.00 | 21 | 1009.6 |
| 20260503221648 | 74 | 266 | 6.1 | 8.7 | 0.00 | 0.00 | 0.00 | 21 | 1009.8 |
| 20260503221145 | 73 | 328 | 8.7 | 9.6 | 0.00 | 0.00 | 0.00 | 21 | 1009.8 |
| 20260503220642 | 73 | 342 | 4.3 | 6.1 | 0.00 | 0.00 | 0.00 | 21 | 1010.0 |
| 20260503220138 | 74 | 314 | 9.6 | 11.3 | 0.00 | 0.00 | 0.00 | 20 | 1010.0 |
| 20260503215636 | 74 | 5 | 10.4 | 12.2 | 0.00 | 0.00 | 0.00 | 21 | 1009.9 |
| 20260503215132 | 74 | 349 | 7.0 | 7.8 | 0.00 | 0.00 | 0.00 | 21 | 1009.9 |
| 20260503214631 | 73 | 313 | 5.2 | 7.0 | 0.00 | 0.00 | 0.00 | 21 | 1010.1 |
| 20260503214126 | 73 | 312 | 9.6 | 12.2 | 0.00 | 0.00 | 0.00 | 20 | 1010.1 |
| 20260503213620 | 74 | 278 | 7.0 | 8.7 | 0.00 | 0.00 | 0.00 | 21 | 1010.2 |
| 20260503213116 | 74 | 266 | 7.8 | 9.6 | 0.00 | 0.00 | 0.00 | 20 | 1010.1 |
| 20260503212614 | 72 | 358 | 8.7 | 9.6 | 0.00 | 0.00 | 0.00 | 20 | 1010.1 |
| 20260503212111 | 74 | 297 | 9.6 | 11.3 | 0.00 | 0.00 | 0.00 | 20 | 1010.3 |
| 20260503211609 | 73 | 268 | 5.2 | 7.0 | 0.00 | 0.00 | 0.00 | 21 | 1010.3 |
| 20260503211104 | 73 | 315 | 4.3 | 5.2 | 0.00 | 0.00 | 0.00 | 21 | 1010.6 |
| 20260503210601 | 73 | 309 | 6.1 | 7.0 | 0.00 | 0.00 | 0.00 | 21 | 1010.6 |
| 20260503210056 | 73 | 293 | 7.0 | 9.6 | 0.00 | 0.00 | 0.00 | 21 | 1010.9 |
| 20260503205553 | 72 | 344 | 10.4 | 13.0 | 0.00 | 0.00 | 0.00 | 22 | 1010.6 |
| 20260503205049 | 73 | 331 | 9.6 | 11.3 | 0.00 | 0.00 | 0.00 | 21 | 1010.7 |
| 20260503204547 | 73 | 275 | 7.0 | 8.7 | 0.00 | 0.00 | 0.00 | 21 | 1011.1 |
| 20260503204044 | 72 | 355 | 7.0 | 7.8 | 0.00 | 0.00 | 0.00 | 21 | 1010.8 |
| 20260503203541 | 73 | 327 | 8.7 | 11.3 | 0.00 | 0.00 | 0.00 | 21 | 1011.0 |
| 20260503203038 | 73 | 332 | 5.2 | 7.0 | 0.00 | 0.00 | 0.00 | 22 | 1010.8 |
| 20260503202536 | 72 | 323 | 5.2 | 6.1 | 0.00 | 0.00 | 0.00 | 21 | 1011.1 |
| 20260503202033 | 72 | 289 | 7.0 | 7.8 | 0.00 | 0.00 | 0.00 | 22 | 1011.1 |
| 20260503201531 | 73 | 350 | 9.6 | 11.3 | 0.00 | 0.00 | 0.00 | 21 | 1011.2 |
| 20260503201028 | 72 | 251 | 6.1 | 7.0 | 0.00 | 0.00 | 0.00 | 22 | 1011.3 |
| 20260503200524 | 72 | 359 | 6.1 | 7.8 | 0.00 | 0.00 | 0.00 | 22 | 1011.5 |
| 20260503200015 | 71 | 335 | 8.7 | 12.2 | 0.00 | 0.00 | 0.00 | 21 | 1011.4 |
| 20260503195512 | 71 | 282 | 7.0 | 8.7 | 0.00 | 0.00 | 0.00 | 22 | 1011.5 |
| 20260503195003 | 71 | 284 | 8.7 | 11.3 | 0.00 | 0.00 | 0.00 | 22 | 1011.8 |
| 20260503194501 | 71 | 298 | 4.3 | 5.2 | 0.00 | 0.00 | 0.00 | 22 | 1011.8 |
| 20260503194000 | 71 | 307 | 7.8 | 9.6 | 0.00 | 0.00 | 0.00 | 22 | 1011.8 |
| 20260503193457 | 70 | 289 | 6.1 | 8.7 | 0.00 | 0.00 | 0.00 | 23 | 1011.7 |
| 20260503192953 | 72 | 329 | 8.7 | 12.2 | 0.00 | 0.00 | 0.00 | 21 | 1011.7 |
| 20260503192449 | 71 | 338 | 5.2 | 7.0 | 0.00 | 0.00 | 0.00 | 21 | 1011.8 |
| 20260503191944 | 71 | 330 | 9.6 | 12.2 | 0.00 | 0.00 | 0.00 | 21 | 1011.5 |
| 20260503191443 | 70 | 299 | 7.8 | 8.7 | 0.00 | 0.00 | 0.00 | 21 | 1012.0 |
| 20260503190938 | 70 | 311 | 7.8 | 11.3 | 0.00 | 0.00 | 0.00 | 22 | 1012.0 |
| 20260503190436 | 70 | 327 | 7.8 | 8.7 | 0.00 | 0.00 | 0.00 | 22 | 1011.9 |
| 20260503185933 | 70 | 318 | 1.7 | 2.6 | 0.00 | 0.00 | 0.00 | 24 | 1012.1 |
| 20260503185429 | 71 | 293 | 5.2 | 8.7 | 0.00 | 0.00 | 0.00 | 22 | 1012.3 |
| 20260503184928 | 70 | 255 | 6.1 | 7.8 | 0.00 | 0.00 | 0.00 | 22 | 1012.1 |
| 20260503184425 | 72 | 299 | 7.8 | 9.6 | 0.00 | 0.00 | 0.00 | 22 | 1012.3 |
| 20260503183922 | 72 | 303 | 7.8 | 8.7 | 0.00 | 0.00 | 0.00 | 21 | 1012.1 |
| 20260503183418 | 70 | 276 | 3.5 | 5.2 | 0.00 | 0.00 | 0.00 | 23 | 1012.2 |
| 20260503182916 | 69 | 290 | 3.5 | 6.1 | 0.00 | 0.00 | 0.00 | 23 | 1012.2 |
| 20260503182415 | 69 | 358 | 6.1 | 7.0 | 0.00 | 0.00 | 0.00 | 22 | 1012.1 |
| 20260503181911 | 70 | 302 | 5.2 | 7.0 | 0.00 | 0.00 | 0.00 | 23 | 1012.5 |
| 20260503181408 | 70 | 286 | 3.5 | 5.2 | 0.00 | 0.00 | 0.00 | 24 | 1012.5 |
| 20260503180904 | 70 | 329 | 9.6 | 9.6 | 0.00 | 0.00 | 0.00 | 22 | 1012.7 |
| 20260503180403 | 69 | 348 | 6.1 | 7.8 | 0.00 | 0.00 | 0.00 | 23 | 1012.5 |
| 20260503175859 | 70 | 299 | 9.6 | 11.3 | 0.00 | 0.00 | 0.00 | 22 | 1012.7 |
| 20260503175357 | 71 | 337 | 3.5 | 5.2 | 0.00 | 0.00 | 0.00 | 24 | 1012.5 |
| 20260503174857 | 70 | 239 | 0.9 | 1.7 | 0.00 | 0.00 | 0.00 | 23 | 1012.8 |
| 20260503174357 | 69 | 340 | 9.6 | 12.2 | 0.00 | 0.00 | 0.00 | 23 | 1012.7 |
| 20260503173856 | 69 | 261 | 2.6 | 2.6 | 0.00 | 0.00 | 0.00 | 24 | 1012.9 |
| 20260503173353 | 69 | 334 | 9.6 | 12.2 | 0.00 | 0.00 | 0.00 | 23 | 1013.0 |
| 20260503172849 | 69 | 325 | 5.2 | 6.1 | 0.00 | 0.00 | 0.00 | 24 | 1012.9 |
| 20260503172348 | 68 | 356 | 2.6 | 3.5 | 0.00 | 0.00 | 0.00 | 26 | 1013.0 |
| 20260503171843 | 69 | 326 | 7.0 | 7.8 | 0.00 | 0.00 | 0.00 | 25 | 1013.0 |
| 20260503171340 | 69 | 343 | 9.6 | 12.2 | 0.00 | 0.00 | 0.00 | 25 | 1012.9 |
| 20260503170838 | 69 | 4 | 6.1 | 7.0 | 0.00 | 0.00 | 0.00 | 26 | 1012.8 |
| 20260503170334 | 69 | 296 | 5.2 | 8.7 | 0.00 | 0.00 | 0.00 | 25 | 1012.9 |
| 20260503150726 | 59 | 294 | 1.7 | 2.6 | 0.00 | 0.00 | 0.00 | 49 | 1013.6 |
| 20260503150223 | 58 | 278 | 3.5 | 5.2 | 0.00 | 0.00 | 0.00 | 48 | 1013.4 |
| 20260503140147 | 52 | 284 | 3.5 | 3.5 | 0.00 | 0.00 | 0.00 | 66 | 1014.1 |
| 20260503131116 | 41 | 359 | 1.7 | 2.6 | 0.00 | 0.00 | 0.00 | 79 | 1013.9 |
| 20260503130614 | 40 | 348 | 0.9 | 0.9 | 0.00 | 0.00 | 0.00 | 79 | 1013.8 |
| 20260503130111 | 39 | 333 | 1.7 | 1.7 | 0.00 | 0.00 | 0.00 | 81 | 1013.8 |
| 20260503110504 | 36 | 17 | 1.7 | 1.7 | 0.00 | 0.00 | 0.00 | 85 | 1014.4 |